Year,Month,Day,Hour,Minute,Value (Times are PST for temperature in C)
2017,06,10,00,00,10.70
2017,06,10,00,01,10.70
2017,06,10,00,02,10.70
2017,06,10,00,03,10.70
2017,06,10,00,04,10.70
2017,06,10,00,05,10.70
2017,06,10,00,06,10.70
2017,06,10,00,07,10.70
2017,06,10,00,08,10.70
2017,06,10,00,09,10.60
2017,06,10,00,10,10.60
2017,06,10,00,11,10.60
2017,06,10,00,12,10.60
2017,06,10,00,13,10.60
2017,06,10,00,14,10.60
2017,06,10,00,15,10.60
2017,06,10,00,16,10.60
2017,06,10,00,17,10.60
2017,06,10,00,18,10.50
2017,06,10,00,19,10.50
2017,06,10,00,20,10.50
2017,06,10,00,21,10.50
2017,06,10,00,22,10.40
2017,06,10,00,23,10.40
2017,06,10,00,24,10.40
2017,06,10,00,25,10.40
2017,06,10,00,26,10.40
2017,06,10,00,27,10.40
2017,06,10,00,28,10.40
2017,06,10,00,29,10.40
2017,06,10,00,30,10.40
2017,06,10,00,31,10.40
2017,06,10,00,32,10.40
2017,06,10,00,33,10.30
2017,06,10,00,34,10.30
2017,06,10,00,35,10.30
2017,06,10,00,36,10.30
2017,06,10,00,37,10.30
2017,06,10,00,38,10.20
2017,06,10,00,39,10.20
2017,06,10,00,40,10.20
2017,06,10,00,41,10.20
2017,06,10,00,42,10.20
2017,06,10,00,43,10.20
2017,06,10,00,44,10.20
2017,06,10,00,45,10.10
2017,06,10,00,46,10.10
2017,06,10,00,47,10.10
2017,06,10,00,48,10.10
2017,06,10,00,49,10.10
2017,06,10,00,50,10.10
2017,06,10,00,51,10.10
2017,06,10,00,52,10.10
2017,06,10,00,53,10.10
2017,06,10,00,54,10.10
2017,06,10,00,55,10.10
2017,06,10,00,56,10.10
2017,06,10,00,57,10.10
2017,06,10,00,58,10.10
2017,06,10,00,59,10.10
2017,06,10,01,00,10.10
2017,06,10,01,01,10.00
2017,06,10,01,02,10.00
2017,06,10,01,03,10.00
2017,06,10,01,04,10.00
2017,06,10,01,05,9.90
2017,06,10,01,06,9.90
2017,06,10,01,07,9.90
2017,06,10,01,08,9.90
2017,06,10,01,09,9.90
2017,06,10,01,10,9.80
2017,06,10,01,11,9.80
2017,06,10,01,12,9.80
2017,06,10,01,13,9.80
2017,06,10,01,14,9.80
2017,06,10,01,15,9.80
2017,06,10,01,16,9.70
2017,06,10,01,17,9.70
2017,06,10,01,18,9.70
2017,06,10,01,19,9.70
2017,06,10,01,20,9.70
2017,06,10,01,21,9.70
2017,06,10,01,22,9.70
2017,06,10,01,23,9.70
2017,06,10,01,24,9.70
2017,06,10,01,25,9.70
2017,06,10,01,26,9.70
2017,06,10,01,27,9.70
2017,06,10,01,28,9.70
2017,06,10,01,29,9.70
2017,06,10,01,30,9.70
2017,06,10,01,31,9.70
2017,06,10,01,32,9.70
2017,06,10,01,33,9.60
2017,06,10,01,34,9.60
2017,06,10,01,35,9.60
2017,06,10,01,36,9.60
2017,06,10,01,37,9.60
2017,06,10,01,38,9.60
2017,06,10,01,39,9.50
2017,06,10,01,40,9.50
2017,06,10,01,41,9.50
2017,06,10,01,42,9.50
2017,06,10,01,43,9.40
2017,06,10,01,44,9.40
2017,06,10,01,45,9.40
2017,06,10,01,46,9.40
2017,06,10,01,47,9.40
2017,06,10,01,48,9.40
2017,06,10,01,49,9.40
2017,06,10,01,50,9.50
2017,06,10,01,51,9.50
2017,06,10,01,52,9.50
2017,06,10,01,53,9.50
2017,06,10,01,54,9.50
2017,06,10,01,55,9.50
2017,06,10,01,56,9.50
2017,06,10,01,57,9.40
2017,06,10,01,58,9.40
2017,06,10,01,59,9.40
2017,06,10,02,00,9.40
2017,06,10,02,01,9.40
2017,06,10,02,02,9.40
2017,06,10,02,03,9.40
2017,06,10,02,04,9.40
2017,06,10,02,05,9.30
2017,06,10,02,06,9.30
2017,06,10,02,07,9.30
2017,06,10,02,08,9.30
2017,06,10,02,09,9.30
2017,06,10,02,10,9.30
2017,06,10,02,11,9.30
2017,06,10,02,12,9.30
2017,06,10,02,13,9.20
2017,06,10,02,14,9.20
2017,06,10,02,15,9.20
2017,06,10,02,16,9.20
2017,06,10,02,17,9.20
2017,06,10,02,18,9.20
2017,06,10,02,19,9.10
2017,06,10,02,20,9.10
2017,06,10,02,21,9.10
2017,06,10,02,22,9.10
2017,06,10,02,23,9.10
2017,06,10,02,24,9.10
2017,06,10,02,25,9.10
2017,06,10,02,26,9.10
2017,06,10,02,27,9.10
2017,06,10,02,28,9.10
2017,06,10,02,29,9.10
2017,06,10,02,30,9.00
2017,06,10,02,31,9.00
2017,06,10,02,32,9.00
2017,06,10,02,33,8.90
2017,06,10,02,34,8.90
2017,06,10,02,35,8.90
2017,06,10,02,36,8.90
2017,06,10,02,37,8.90
2017,06,10,02,38,8.90
2017,06,10,02,39,8.80
2017,06,10,02,40,8.80
2017,06,10,02,41,8.80
2017,06,10,02,42,8.80
2017,06,10,02,43,8.80
2017,06,10,02,44,8.80
2017,06,10,02,45,8.80
2017,06,10,02,46,8.70
2017,06,10,02,47,8.70
2017,06,10,02,48,8.70
2017,06,10,02,49,8.70
2017,06,10,02,50,8.70
2017,06,10,02,51,8.70
2017,06,10,02,52,8.70
2017,06,10,02,53,8.60
2017,06,10,02,54,8.60
2017,06,10,02,55,8.60
2017,06,10,02,56,8.60
2017,06,10,02,57,8.60
2017,06,10,02,58,8.50
2017,06,10,02,59,8.50
2017,06,10,03,00,8.50
2017,06,10,03,01,8.40
2017,06,10,03,02,8.40
2017,06,10,03,03,8.40
2017,06,10,03,04,8.40
2017,06,10,03,05,8.30
2017,06,10,03,06,8.30
2017,06,10,03,07,8.30
2017,06,10,03,08,8.30
2017,06,10,03,09,8.30
2017,06,10,03,10,8.30
2017,06,10,03,11,8.30
2017,06,10,03,12,8.20
2017,06,10,03,13,8.20
2017,06,10,03,14,8.20
2017,06,10,03,15,8.20
2017,06,10,03,16,8.20
2017,06,10,03,17,8.20
2017,06,10,03,18,8.20
2017,06,10,03,19,8.10
2017,06,10,03,20,8.10
2017,06,10,03,21,8.10
2017,06,10,03,22,8.10
2017,06,10,03,23,8.10
2017,06,10,03,24,8.10
2017,06,10,03,25,8.00
2017,06,10,03,26,8.00
2017,06,10,03,27,8.00
2017,06,10,03,28,8.00
2017,06,10,03,29,8.00
2017,06,10,03,30,8.00
2017,06,10,03,31,7.90
2017,06,10,03,32,7.90
2017,06,10,03,33,7.90
2017,06,10,03,34,7.90
2017,06,10,03,35,7.90
2017,06,10,03,36,7.90
2017,06,10,03,37,7.90
2017,06,10,03,38,7.80
2017,06,10,03,39,7.80
2017,06,10,03,40,7.80
2017,06,10,03,41,7.80
2017,06,10,03,42,7.80
2017,06,10,03,43,7.80
2017,06,10,03,44,7.80
2017,06,10,03,45,7.80
2017,06,10,03,46,7.80
2017,06,10,03,47,7.80
2017,06,10,03,48,7.80
2017,06,10,03,49,7.80
2017,06,10,03,50,7.70
2017,06,10,03,51,7.70
2017,06,10,03,52,7.70
2017,06,10,03,53,7.70
2017,06,10,03,54,7.70
2017,06,10,03,55,7.70
2017,06,10,03,56,7.70
2017,06,10,03,57,7.70
2017,06,10,03,58,7.70
2017,06,10,03,59,7.60
2017,06,10,04,00,7.60
2017,06,10,04,01,7.60
2017,06,10,04,02,7.60
2017,06,10,04,03,7.60
2017,06,10,04,04,7.60
2017,06,10,04,05,7.60
2017,06,10,04,06,7.60
2017,06,10,04,07,7.60
2017,06,10,04,08,7.60
2017,06,10,04,09,7.60
2017,06,10,04,10,7.50
2017,06,10,04,11,7.50
2017,06,10,04,12,7.50
2017,06,10,04,13,7.50
2017,06,10,04,14,7.50
2017,06,10,04,15,7.50
2017,06,10,04,16,7.50
2017,06,10,04,17,7.50
2017,06,10,04,18,7.50
2017,06,10,04,19,7.50
2017,06,10,04,20,7.50
2017,06,10,04,21,7.50
2017,06,10,04,22,7.50
2017,06,10,04,23,7.50
2017,06,10,04,24,7.40
2017,06,10,04,25,7.40
2017,06,10,04,26,7.40
2017,06,10,04,27,7.40
2017,06,10,04,28,7.40
2017,06,10,04,29,7.40
2017,06,10,04,30,7.40
2017,06,10,04,31,7.40
2017,06,10,04,32,7.40
2017,06,10,04,33,7.40
2017,06,10,04,34,7.30
2017,06,10,04,35,7.30
2017,06,10,04,36,7.30
2017,06,10,04,37,7.30
2017,06,10,04,38,7.30
2017,06,10,04,39,7.30
2017,06,10,04,40,7.30
2017,06,10,04,41,7.30
2017,06,10,04,42,7.40
2017,06,10,04,43,7.40
2017,06,10,04,44,7.40
2017,06,10,04,45,7.40
2017,06,10,04,46,7.40
2017,06,10,04,47,7.40
2017,06,10,04,48,7.40
2017,06,10,04,49,7.40
2017,06,10,04,50,7.40
2017,06,10,04,51,7.40
2017,06,10,04,52,7.40
2017,06,10,04,53,7.40
2017,06,10,04,54,7.40
2017,06,10,04,55,7.40
2017,06,10,04,56,7.40
2017,06,10,04,57,7.40
2017,06,10,04,58,7.40
2017,06,10,04,59,7.40
2017,06,10,05,00,7.40
2017,06,10,05,01,7.40
2017,06,10,05,02,7.40
2017,06,10,05,03,7.40
2017,06,10,05,04,7.40
2017,06,10,05,05,7.40
2017,06,10,05,06,7.40
2017,06,10,05,07,7.40
2017,06,10,05,08,7.40
2017,06,10,05,09,7.40
2017,06,10,05,10,7.30
2017,06,10,05,11,7.30
2017,06,10,05,12,7.30
2017,06,10,05,13,7.40
2017,06,10,05,14,7.40
2017,06,10,05,15,7.40
2017,06,10,05,16,7.40
2017,06,10,05,17,7.40
2017,06,10,05,18,7.40
2017,06,10,05,19,7.50
2017,06,10,05,20,7.50
2017,06,10,05,21,7.50
2017,06,10,05,22,7.50
2017,06,10,05,23,7.60
2017,06,10,05,24,7.60
2017,06,10,05,25,7.60
2017,06,10,05,26,7.60
2017,06,10,05,27,7.60
2017,06,10,05,28,7.60
2017,06,10,05,29,7.60
2017,06,10,05,30,7.70
2017,06,10,05,31,7.70
2017,06,10,05,32,7.80
2017,06,10,05,33,7.80
2017,06,10,05,34,7.80
2017,06,10,05,35,7.80
2017,06,10,05,36,7.80
2017,06,10,05,37,7.80
2017,06,10,05,38,7.80
2017,06,10,05,39,7.80
2017,06,10,05,40,7.80
2017,06,10,05,41,7.80
2017,06,10,05,42,7.80
2017,06,10,05,43,7.80
2017,06,10,05,44,7.80
2017,06,10,05,45,7.80
2017,06,10,05,46,7.80
2017,06,10,05,47,7.80
2017,06,10,05,48,7.80
2017,06,10,05,49,7.80
2017,06,10,05,50,7.80
2017,06,10,05,51,7.80
2017,06,10,05,52,7.80
2017,06,10,05,53,7.80
2017,06,10,05,54,7.80
2017,06,10,05,55,7.80
2017,06,10,05,56,7.80
2017,06,10,05,57,7.80
2017,06,10,05,58,7.80
2017,06,10,05,59,7.80
2017,06,10,06,00,7.70
2017,06,10,06,01,7.70
2017,06,10,06,02,7.70
2017,06,10,06,03,7.70
2017,06,10,06,04,7.70
2017,06,10,06,05,7.70
2017,06,10,06,06,7.60
2017,06,10,06,07,7.60
2017,06,10,06,08,7.60
2017,06,10,06,09,7.60
2017,06,10,06,10,7.60
2017,06,10,06,11,7.60
2017,06,10,06,12,7.60
2017,06,10,06,13,7.70
2017,06,10,06,14,7.70
2017,06,10,06,15,7.70
2017,06,10,06,16,7.70
2017,06,10,06,17,7.70
2017,06,10,06,18,7.70
2017,06,10,06,19,7.70
2017,06,10,06,20,7.70
2017,06,10,06,21,7.80
2017,06,10,06,22,7.80
2017,06,10,06,23,7.80
2017,06,10,06,24,7.90
2017,06,10,06,25,7.90
2017,06,10,06,26,8.00
2017,06,10,06,27,8.00
2017,06,10,06,28,8.10
2017,06,10,06,29,8.10
2017,06,10,06,30,8.20
2017,06,10,06,31,8.20
2017,06,10,06,32,8.30
2017,06,10,06,33,8.30
2017,06,10,06,34,8.40
2017,06,10,06,35,8.40
2017,06,10,06,36,8.50
2017,06,10,06,37,8.60
2017,06,10,06,38,8.60
2017,06,10,06,39,8.70
2017,06,10,06,40,8.80
2017,06,10,06,41,8.90
2017,06,10,06,42,8.90
2017,06,10,06,43,9.00
2017,06,10,06,44,9.10
2017,06,10,06,45,9.20
2017,06,10,06,46,9.20
2017,06,10,06,47,9.30
2017,06,10,06,48,9.30
2017,06,10,06,49,9.40
2017,06,10,06,50,9.40
2017,06,10,06,51,9.50
2017,06,10,06,52,9.60
2017,06,10,06,53,9.70
2017,06,10,06,54,9.80
2017,06,10,06,55,9.80
2017,06,10,06,56,9.90
2017,06,10,06,57,10.00
2017,06,10,06,58,10.10
2017,06,10,06,59,10.20
2017,06,10,07,00,10.30
2017,06,10,07,01,10.30
2017,06,10,07,02,10.40
2017,06,10,07,03,10.50
2017,06,10,07,04,10.60
2017,06,10,07,05,10.70
2017,06,10,07,06,10.80
2017,06,10,07,07,10.80
2017,06,10,07,08,10.90
2017,06,10,07,09,11.00
2017,06,10,07,10,11.00
2017,06,10,07,11,11.10
2017,06,10,07,12,11.10
2017,06,10,07,13,11.20
2017,06,10,07,14,11.20
2017,06,10,07,15,11.30
2017,06,10,07,16,11.30
2017,06,10,07,17,11.30
2017,06,10,07,18,11.30
2017,06,10,07,19,11.30
2017,06,10,07,20,11.30
2017,06,10,07,21,11.30
2017,06,10,07,22,11.40
2017,06,10,07,23,11.40
2017,06,10,07,24,11.40
2017,06,10,07,25,11.40
2017,06,10,07,26,11.50
2017,06,10,07,27,11.50
2017,06,10,07,28,11.50
2017,06,10,07,29,11.60
2017,06,10,07,30,11.60
2017,06,10,07,31,11.60
2017,06,10,07,32,11.60
2017,06,10,07,33,11.60
2017,06,10,07,34,11.70
2017,06,10,07,35,11.70
2017,06,10,07,36,11.70
2017,06,10,07,37,11.70
2017,06,10,07,38,11.70
2017,06,10,07,39,11.70
2017,06,10,07,40,11.70
2017,06,10,07,41,11.70
2017,06,10,07,42,11.70
2017,06,10,07,43,11.70
2017,06,10,07,44,11.70
2017,06,10,07,45,11.70
2017,06,10,07,46,11.70
2017,06,10,07,47,11.70
2017,06,10,07,48,11.70
2017,06,10,07,49,11.80
2017,06,10,07,50,11.80
2017,06,10,07,51,11.80
2017,06,10,07,52,11.80
2017,06,10,07,53,11.80
2017,06,10,07,54,11.90
2017,06,10,07,55,11.90
2017,06,10,07,56,11.90
2017,06,10,07,57,12.00
2017,06,10,07,58,12.00
2017,06,10,07,59,12.10
2017,06,10,08,00,12.10
2017,06,10,08,01,12.20
2017,06,10,08,02,12.20
2017,06,10,08,03,12.20
2017,06,10,08,04,12.20
2017,06,10,08,05,12.20
2017,06,10,08,06,12.20
2017,06,10,08,07,12.30
2017,06,10,08,08,12.30
2017,06,10,08,09,12.30
2017,06,10,08,10,12.30
2017,06,10,08,11,12.30
2017,06,10,08,12,12.40
2017,06,10,08,13,12.40
2017,06,10,08,14,12.40
2017,06,10,08,15,12.40
2017,06,10,08,16,12.30
2017,06,10,08,17,12.30
2017,06,10,08,18,12.40
2017,06,10,08,19,12.40
2017,06,10,08,20,12.40
2017,06,10,08,21,12.40
2017,06,10,08,22,12.40
2017,06,10,08,23,12.50
2017,06,10,08,24,12.50
2017,06,10,08,25,12.60
2017,06,10,08,26,12.60
2017,06,10,08,27,12.60
2017,06,10,08,28,12.60
2017,06,10,08,29,12.60
2017,06,10,08,30,12.60
2017,06,10,08,31,12.60
2017,06,10,08,32,12.70
2017,06,10,08,33,12.70
2017,06,10,08,34,12.70
2017,06,10,08,35,12.70
2017,06,10,08,36,12.70
2017,06,10,08,37,12.80
2017,06,10,08,38,12.80
2017,06,10,08,39,12.80
2017,06,10,08,40,12.80
2017,06,10,08,41,12.80
2017,06,10,08,42,12.80
2017,06,10,08,43,12.80
2017,06,10,08,44,12.90
2017,06,10,08,45,12.90
2017,06,10,08,46,12.90
2017,06,10,08,47,12.90
2017,06,10,08,48,12.90
2017,06,10,08,49,12.90
2017,06,10,08,50,12.90
2017,06,10,08,51,13.00
2017,06,10,08,52,13.00
2017,06,10,08,53,13.10
2017,06,10,08,54,13.10
2017,06,10,08,55,13.10
2017,06,10,08,56,13.10
2017,06,10,08,57,13.10
2017,06,10,08,58,13.10
2017,06,10,08,59,13.10
2017,06,10,09,00,13.10
2017,06,10,09,01,13.10
2017,06,10,09,02,13.10
2017,06,10,09,03,13.10
2017,06,10,09,04,13.10
2017,06,10,09,05,13.10
2017,06,10,09,06,13.10
2017,06,10,09,07,13.10
2017,06,10,09,08,13.10
2017,06,10,09,09,13.20
2017,06,10,09,10,13.20
2017,06,10,09,11,13.20
2017,06,10,09,12,13.30
2017,06,10,09,13,13.30
2017,06,10,09,14,13.30
2017,06,10,09,15,13.30
2017,06,10,09,16,13.30
2017,06,10,09,17,13.30
2017,06,10,09,18,13.30
2017,06,10,09,19,13.30
2017,06,10,09,20,13.30
2017,06,10,09,21,13.20
2017,06,10,09,22,13.20
2017,06,10,09,23,13.20
2017,06,10,09,24,13.20
2017,06,10,09,25,13.10
2017,06,10,09,26,13.10
2017,06,10,09,27,13.10
2017,06,10,09,28,13.00
2017,06,10,09,29,13.00
2017,06,10,09,30,13.00
2017,06,10,09,31,13.00
2017,06,10,09,32,13.00
2017,06,10,09,33,13.00
2017,06,10,09,34,13.00
2017,06,10,09,35,13.00
2017,06,10,09,36,13.00
2017,06,10,09,37,12.90
2017,06,10,09,38,13.00
2017,06,10,09,39,13.00
2017,06,10,09,40,13.10
2017,06,10,09,41,13.10
2017,06,10,09,42,13.20
2017,06,10,09,43,13.20
2017,06,10,09,44,13.20
2017,06,10,09,45,13.20
2017,06,10,09,46,13.20
2017,06,10,09,47,13.30
2017,06,10,09,48,13.30
2017,06,10,09,49,13.30
2017,06,10,09,50,13.30
2017,06,10,09,51,13.30
2017,06,10,09,52,13.30
2017,06,10,09,53,13.30
2017,06,10,09,54,13.30
2017,06,10,09,55,13.40
2017,06,10,09,56,13.40
2017,06,10,09,57,13.50
2017,06,10,09,58,13.50
2017,06,10,09,59,13.60
2017,06,10,10,00,13.60
2017,06,10,10,01,13.70
2017,06,10,10,02,13.70
2017,06,10,10,03,13.70
2017,06,10,10,04,13.70
2017,06,10,10,05,13.70
2017,06,10,10,06,13.80
2017,06,10,10,07,13.70
2017,06,10,10,08,13.70
2017,06,10,10,09,13.70
2017,06,10,10,10,13.70
2017,06,10,10,11,13.80
2017,06,10,10,12,13.80
2017,06,10,10,13,13.80
2017,06,10,10,14,13.90
2017,06,10,10,15,13.90
2017,06,10,10,16,13.90
2017,06,10,10,17,13.90
2017,06,10,10,18,13.90
2017,06,10,10,19,14.00
2017,06,10,10,20,14.00
2017,06,10,10,21,14.00
2017,06,10,10,22,14.00
2017,06,10,10,23,14.00
2017,06,10,10,24,14.00
2017,06,10,10,25,14.10
2017,06,10,10,26,14.10
2017,06,10,10,27,14.10
2017,06,10,10,28,14.20
2017,06,10,10,29,14.20
2017,06,10,10,30,14.20
2017,06,10,10,31,14.20
2017,06,10,10,32,14.30
2017,06,10,10,33,14.30
2017,06,10,10,34,14.40
2017,06,10,10,35,14.50
2017,06,10,10,36,14.50
2017,06,10,10,37,14.60
2017,06,10,10,38,14.60
2017,06,10,10,39,14.50
2017,06,10,10,40,14.50
2017,06,10,10,41,14.50
2017,06,10,10,42,14.50
2017,06,10,10,43,14.60
2017,06,10,10,44,14.70
2017,06,10,10,45,14.70
2017,06,10,10,46,14.70
2017,06,10,10,47,14.70
2017,06,10,10,48,14.70
2017,06,10,10,49,14.70
2017,06,10,10,50,14.70
2017,06,10,10,51,14.60
2017,06,10,10,52,14.70
2017,06,10,10,53,14.70
2017,06,10,10,54,14.70
2017,06,10,10,55,14.70
2017,06,10,10,56,14.80
2017,06,10,10,57,14.80
2017,06,10,10,58,14.80
2017,06,10,10,59,14.80
2017,06,10,11,00,14.90
2017,06,10,11,01,14.90
2017,06,10,11,02,14.90
2017,06,10,11,03,14.90
2017,06,10,11,04,14.90
2017,06,10,11,05,14.90
2017,06,10,11,06,14.90
2017,06,10,11,07,15.00
2017,06,10,11,08,15.00
2017,06,10,11,09,15.00
2017,06,10,11,10,15.00
2017,06,10,11,11,15.00
2017,06,10,11,12,15.10
2017,06,10,11,13,15.10
2017,06,10,11,14,15.00
2017,06,10,11,15,15.00
2017,06,10,11,16,15.00
2017,06,10,11,17,15.10
2017,06,10,11,18,15.20
2017,06,10,11,19,15.30
2017,06,10,11,20,15.40
2017,06,10,11,21,15.60
2017,06,10,11,22,15.80
2017,06,10,11,23,15.90
2017,06,10,11,24,16.00
2017,06,10,11,25,16.00
2017,06,10,11,26,16.00
2017,06,10,11,27,15.90
2017,06,10,11,28,15.90
2017,06,10,11,29,15.90
2017,06,10,11,30,15.90
2017,06,10,11,31,15.90
2017,06,10,11,32,15.80
2017,06,10,11,33,15.90
2017,06,10,11,34,15.90
2017,06,10,11,35,15.90
2017,06,10,11,36,15.90
2017,06,10,11,37,15.90
2017,06,10,11,38,15.90
2017,06,10,11,39,15.90
2017,06,10,11,40,16.00
2017,06,10,11,41,16.10
2017,06,10,11,42,16.10
2017,06,10,11,43,16.20
2017,06,10,11,44,16.10
2017,06,10,11,45,16.10
2017,06,10,11,46,16.10
2017,06,10,11,47,16.10
2017,06,10,11,48,16.10
2017,06,10,11,49,16.10
2017,06,10,11,50,16.00
2017,06,10,11,51,16.00
2017,06,10,11,52,16.00
2017,06,10,11,53,16.00
2017,06,10,11,54,16.00
2017,06,10,11,55,16.00
2017,06,10,11,56,16.00
2017,06,10,11,57,16.00
2017,06,10,11,58,16.00
2017,06,10,11,59,16.00
2017,06,10,12,00,16.00
2017,06,10,12,01,16.00
2017,06,10,12,02,15.90
2017,06,10,12,03,15.90
2017,06,10,12,04,15.90
2017,06,10,12,05,15.90
2017,06,10,12,06,15.80
2017,06,10,12,07,15.90
2017,06,10,12,08,15.80
2017,06,10,12,09,15.90
2017,06,10,12,10,15.80
2017,06,10,12,11,15.80
2017,06,10,12,12,15.80
2017,06,10,12,13,15.90
2017,06,10,12,14,15.90
2017,06,10,12,15,16.00
2017,06,10,12,16,16.10
2017,06,10,12,17,16.10
2017,06,10,12,18,16.20
2017,06,10,12,19,16.30
2017,06,10,12,20,16.30
2017,06,10,12,21,16.30
2017,06,10,12,22,16.30
2017,06,10,12,23,16.30
2017,06,10,12,24,16.30
2017,06,10,12,25,16.30
2017,06,10,12,26,16.20
2017,06,10,12,27,16.20
2017,06,10,12,28,16.20
2017,06,10,12,29,16.20
2017,06,10,12,30,16.20
2017,06,10,12,31,16.20
2017,06,10,12,32,16.10
2017,06,10,12,33,16.10
2017,06,10,12,34,16.10
2017,06,10,12,35,16.10
2017,06,10,12,36,16.10
2017,06,10,12,37,16.10
2017,06,10,12,38,16.10
2017,06,10,12,39,16.10
2017,06,10,12,40,16.10
2017,06,10,12,41,16.10
2017,06,10,12,42,16.10
2017,06,10,12,43,16.10
2017,06,10,12,44,16.00
2017,06,10,12,45,16.00
2017,06,10,12,46,16.00
2017,06,10,12,47,16.00
2017,06,10,12,48,16.00
2017,06,10,12,49,15.90
2017,06,10,12,50,15.90
2017,06,10,12,51,15.90
2017,06,10,12,52,15.90
2017,06,10,12,53,16.00
2017,06,10,12,54,16.00
2017,06,10,12,55,16.00
2017,06,10,12,56,16.00
2017,06,10,12,57,16.10
2017,06,10,12,58,16.30
2017,06,10,12,59,16.40
2017,06,10,13,00,16.40
2017,06,10,13,01,16.50
2017,06,10,13,02,16.60
2017,06,10,13,03,16.70
2017,06,10,13,04,16.70
2017,06,10,13,05,16.70
2017,06,10,13,06,16.80
2017,06,10,13,07,16.80
2017,06,10,13,08,16.80
2017,06,10,13,09,16.80
2017,06,10,13,10,16.70
2017,06,10,13,11,16.60
2017,06,10,13,12,16.60
2017,06,10,13,13,16.60
2017,06,10,13,14,16.70
2017,06,10,13,15,16.70
2017,06,10,13,16,16.70
2017,06,10,13,17,16.70
2017,06,10,13,18,16.70
2017,06,10,13,19,16.70
2017,06,10,13,20,16.60
2017,06,10,13,21,16.50
2017,06,10,13,22,16.50
2017,06,10,13,23,16.50
2017,06,10,13,24,16.50
2017,06,10,13,25,16.40
2017,06,10,13,26,16.40
2017,06,10,13,27,16.50
2017,06,10,13,28,16.60
2017,06,10,13,29,16.70
2017,06,10,13,30,16.80
2017,06,10,13,31,16.80
2017,06,10,13,32,16.80
2017,06,10,13,33,16.80
2017,06,10,13,34,16.80
2017,06,10,13,35,16.80
2017,06,10,13,36,16.80
2017,06,10,13,37,16.80
2017,06,10,13,38,16.80
2017,06,10,13,39,16.80
2017,06,10,13,40,16.70
2017,06,10,13,41,16.80
2017,06,10,13,42,16.80
2017,06,10,13,43,16.80
2017,06,10,13,44,16.90
2017,06,10,13,45,17.00
2017,06,10,13,46,17.10
2017,06,10,13,47,17.20
2017,06,10,13,48,17.20
2017,06,10,13,49,17.20
2017,06,10,13,50,17.20
2017,06,10,13,51,17.20
2017,06,10,13,52,17.20
2017,06,10,13,53,17.20
2017,06,10,13,54,17.20
2017,06,10,13,55,17.10
2017,06,10,13,56,17.20
2017,06,10,13,57,17.20
2017,06,10,13,58,17.10
2017,06,10,13,59,17.10
2017,06,10,14,00,17.10
2017,06,10,14,01,17.00
2017,06,10,14,02,17.10
2017,06,10,14,03,17.10
2017,06,10,14,04,17.20
2017,06,10,14,05,17.30
2017,06,10,14,06,17.30
2017,06,10,14,07,17.30
2017,06,10,14,08,17.30
2017,06,10,14,09,17.30
2017,06,10,14,10,17.20
2017,06,10,14,11,17.20
2017,06,10,14,12,17.20
2017,06,10,14,13,17.20
2017,06,10,14,14,17.20
2017,06,10,14,15,17.20
2017,06,10,14,16,17.20
2017,06,10,14,17,17.20
2017,06,10,14,18,17.20
2017,06,10,14,19,17.20
2017,06,10,14,20,17.20
2017,06,10,14,21,17.20
2017,06,10,14,22,17.20
2017,06,10,14,23,17.20
2017,06,10,14,24,17.20
2017,06,10,14,25,17.20
2017,06,10,14,26,17.10
2017,06,10,14,27,17.10
2017,06,10,14,28,17.10
2017,06,10,14,29,17.20
2017,06,10,14,30,17.30
2017,06,10,14,31,17.30
2017,06,10,14,32,17.40
2017,06,10,14,33,17.50
2017,06,10,14,34,17.50
2017,06,10,14,35,17.60
2017,06,10,14,36,17.70
2017,06,10,14,37,17.70
2017,06,10,14,38,17.80
2017,06,10,14,39,17.80
2017,06,10,14,40,17.70
2017,06,10,14,41,17.70
2017,06,10,14,42,17.70
2017,06,10,14,43,17.70
2017,06,10,14,44,17.70
2017,06,10,14,45,17.80
2017,06,10,14,46,17.80
2017,06,10,14,47,17.90
2017,06,10,14,48,18.00
2017,06,10,14,49,18.10
2017,06,10,14,50,18.10
2017,06,10,14,51,18.10
2017,06,10,14,52,18.10
2017,06,10,14,53,18.10
2017,06,10,14,54,18.10
2017,06,10,14,55,18.10
2017,06,10,14,56,18.10
2017,06,10,14,57,18.10
2017,06,10,14,58,18.10
2017,06,10,14,59,18.10
2017,06,10,15,00,18.10
2017,06,10,15,01,18.00
2017,06,10,15,02,17.90
2017,06,10,15,03,17.90
2017,06,10,15,04,17.90
2017,06,10,15,05,17.90
2017,06,10,15,06,17.90
2017,06,10,15,07,17.90
2017,06,10,15,08,18.00
2017,06,10,15,09,18.00
2017,06,10,15,10,18.00
2017,06,10,15,11,18.00
2017,06,10,15,12,18.00
2017,06,10,15,13,18.00
2017,06,10,15,14,18.00
2017,06,10,15,15,17.90
2017,06,10,15,16,17.90
2017,06,10,15,17,17.90
2017,06,10,15,18,17.90
2017,06,10,15,19,17.80
2017,06,10,15,20,17.80
2017,06,10,15,21,17.80
2017,06,10,15,22,17.80
2017,06,10,15,23,17.90
2017,06,10,15,24,17.90
2017,06,10,15,25,17.90
2017,06,10,15,26,17.90
2017,06,10,15,27,17.90
2017,06,10,15,28,17.90
2017,06,10,15,29,17.90
2017,06,10,15,30,17.90
2017,06,10,15,31,17.80
2017,06,10,15,32,17.80
2017,06,10,15,33,17.80
2017,06,10,15,34,17.80
2017,06,10,15,35,17.80
2017,06,10,15,36,17.90
2017,06,10,15,37,17.90
2017,06,10,15,38,17.90
2017,06,10,15,39,17.90
2017,06,10,15,40,17.90
2017,06,10,15,41,17.90
2017,06,10,15,42,17.90
2017,06,10,15,43,17.80
2017,06,10,15,44,17.80
2017,06,10,15,45,17.80
2017,06,10,15,46,17.80
2017,06,10,15,47,17.80
2017,06,10,15,48,17.80
2017,06,10,15,49,17.70
2017,06,10,15,50,17.70
2017,06,10,15,51,17.60
2017,06,10,15,52,17.50
2017,06,10,15,53,17.50
2017,06,10,15,54,17.40
2017,06,10,15,55,17.40
2017,06,10,15,56,17.40
2017,06,10,15,57,17.40
2017,06,10,15,58,17.40
2017,06,10,15,59,17.40
2017,06,10,16,00,17.40
2017,06,10,16,01,17.40
2017,06,10,16,02,17.50
2017,06,10,16,03,17.50
2017,06,10,16,04,17.60
2017,06,10,16,05,17.70
2017,06,10,16,06,17.70
2017,06,10,16,07,17.70
2017,06,10,16,08,17.70
2017,06,10,16,09,17.70
2017,06,10,16,10,17.70
2017,06,10,16,11,17.70
2017,06,10,16,12,17.80
2017,06,10,16,13,17.80
2017,06,10,16,14,17.80
2017,06,10,16,15,17.80
2017,06,10,16,16,17.80
2017,06,10,16,17,17.80
2017,06,10,16,18,17.80
2017,06,10,16,19,17.80
2017,06,10,16,20,17.80
2017,06,10,16,21,17.80
2017,06,10,16,22,17.80
2017,06,10,16,23,17.80
2017,06,10,16,24,17.80
2017,06,10,16,25,17.80
2017,06,10,16,26,17.80
2017,06,10,16,27,17.80
2017,06,10,16,28,17.90
2017,06,10,16,29,17.90
2017,06,10,16,30,17.90
2017,06,10,16,31,17.80
2017,06,10,16,32,17.80
2017,06,10,16,33,17.80
2017,06,10,16,34,17.80
2017,06,10,16,35,17.80
2017,06,10,16,36,17.80
2017,06,10,16,37,17.80
2017,06,10,16,38,17.80
2017,06,10,16,39,17.80
2017,06,10,16,40,17.80
2017,06,10,16,41,17.80
2017,06,10,16,42,17.80
2017,06,10,16,43,17.80
2017,06,10,16,44,17.80
2017,06,10,16,45,17.90
2017,06,10,16,46,17.90
2017,06,10,16,47,17.90
2017,06,10,16,48,17.90
2017,06,10,16,49,17.80
2017,06,10,16,50,17.80
2017,06,10,16,51,17.90
2017,06,10,16,52,17.90
2017,06,10,16,53,17.90
2017,06,10,16,54,17.90
2017,06,10,16,55,17.90
2017,06,10,16,56,17.80
2017,06,10,16,57,17.80
2017,06,10,16,58,17.70
2017,06,10,16,59,17.70
2017,06,10,17,00,17.70
2017,06,10,17,01,17.70
2017,06,10,17,02,17.70
2017,06,10,17,03,17.70
2017,06,10,17,04,17.80
2017,06,10,17,05,17.80
2017,06,10,17,06,17.80
2017,06,10,17,07,17.80
2017,06,10,17,08,17.80
2017,06,10,17,09,17.70
2017,06,10,17,10,17.70
2017,06,10,17,11,17.80
2017,06,10,17,12,17.80
2017,06,10,17,13,17.90
2017,06,10,17,14,18.00
2017,06,10,17,15,18.00
2017,06,10,17,16,18.10
2017,06,10,17,17,18.20
2017,06,10,17,18,18.20
2017,06,10,17,19,18.20
2017,06,10,17,20,18.20
2017,06,10,17,21,18.30
2017,06,10,17,22,18.20
2017,06,10,17,23,18.20
2017,06,10,17,24,18.20
2017,06,10,17,25,18.20
2017,06,10,17,26,18.20
2017,06,10,17,27,18.20
2017,06,10,17,28,18.20
2017,06,10,17,29,18.20
2017,06,10,17,30,18.20
2017,06,10,17,31,18.20
2017,06,10,17,32,18.20
2017,06,10,17,33,18.20
2017,06,10,17,34,18.20